When you browse on this site, cookies collect data to enhance your experience and personalize the content and advertising you see.
Visit our Privacy Policy to learn more. By continuing to use the site, you agree to this use of cookies and data.
  • In Slovakia
  • List of Countries
  • For 7 days
  • Water Temperature
  • Weather Map
  • Weather Widgets
  • user-avatar
    Login

    Hourly Weather Lezhe

    Today, 17 September, Tuesday

    Time Temperature Precipitation Wind Pressure Humidity
    00:00 +20°C° 0 mm 1 mps 739 mmHg 64%
    01:00 +20°C° 0 mm 1 mps 739 mmHg 65%
    02:00 +20°C° 0 mm 1 mps 738 mmHg 65%
    03:00 +19°C° 0 mm 1 mps 738 mmHg 65%
    04:00 +19°C° 0 mm 1 mps 738 mmHg 65%
    05:00 +20°C° 0 mm 1 mps 738 mmHg 61%
    06:00 +20°C° 0 mm 0 mps 738 mmHg 57%
    07:00 +23°C° 0 mm 1 mps 738 mmHg 52%
    08:00 +25°C° 0 mm 1 mps 738 mmHg 47%
    09:00 +27°C° 0 mm 1 mps 738 mmHg 42%
    10:00 +29°C° 0 mm 1 mps 738 mmHg 37%
    11:00 +29°C° 0 mm 2 mps 738 mmHg 36%
    12:00 +30°C° 0 mm 3 mps 737 mmHg 36%
    13:00 +31°C° 0 mm 3 mps 737 mmHg 35%
    14:00 +30°C° 0 mm 3 mps 737 mmHg 39%
    15:00 +29°C° 0 mm 3 mps 736 mmHg 43%
    16:00 +28°C° 0 mm 3 mps 736 mmHg 47%
    17:00 +25°C° 0 mm 2 mps 736 mmHg 57%
    18:00 +23°C° 0 mm 1 mps 737 mmHg 68%
    19:00 +19°C° 0 mm 0 mps 737 mmHg 78%
    20:00 +21°C° 0 mm 1 mps 737 mmHg 77%
    21:00 +20°C° 0 mm 1 mps 737 mmHg 75%
    22:00 +20°C° 0 mm 1 mps 737 mmHg 74%
    23:00 +20°C° 0 mm 1 mps 737 mmHg 74%

    Tomorrow, 18 September, Wednesday

    Time Temperature Precipitation Wind Pressure Humidity
    00:00 +19°C° 0 mm 1 mps 737 mmHg 74%
    01:00 +19°C° 0 mm 1 mps 737 mmHg 74%
    02:00 +19°C° 0 mm 1 mps 737 mmHg 74%
    03:00 +19°C° 0 mm 1 mps 736 mmHg 75%
    04:00 +18°C° 0 mm 1 mps 736 mmHg 75%
    05:00 +20°C° 0 mm 1 mps 736 mmHg 70%
    06:00 +21°C° 0 mm 1 mps 737 mmHg 64%
    07:00 +22°C° 0 mm 1 mps 737 mmHg 59%
    08:00 +24°C° 0 mm 1 mps 737 mmHg 52%
    09:00 +27°C° 0 mm 1 mps 738 mmHg 44%
    10:00 +29°C° 0 mm 1 mps 738 mmHg 37%
    11:00 +29°C° 0 mm 2 mps 738 mmHg 36%
    12:00 +30°C° 0 mm 2 mps 738 mmHg 35%
    13:00 +30°C° 0 mm 3 mps 738 mmHg 34%
    14:00 +29°C° 0 mm 3 mps 738 mmHg 37%
    15:00 +28°C° 0 mm 3 mps 737 mmHg 40%
    16:00 +27°C° 0 mm 2 mps 737 mmHg 43%
    17:00 +25°C° 0 mm 2 mps 738 mmHg 47%
    18:00 +23°C° 0 mm 2 mps 738 mmHg 51%
    19:00 +20°C° 0 mm 2 mps 738 mmHg 54%
    20:00 +20°C° 0 mm 3 mps 738 mmHg 53%
    21:00 +19°C° 0 mm 3 mps 739 mmHg 52%
    22:00 +18°C° 0 mm 3 mps 739 mmHg 51%
    23:00 +18°C° 0 mm 3 mps 739 mmHg 51%

    Day after tomorrow, 19 September, Thursday

    Time Temperature Precipitation Wind Pressure Humidity
    00:00 +17°C° 0 mm 3 mps 739 mmHg 52%
    01:00 +17°C° 0 mm 3 mps 739 mmHg 52%
    02:00 +17°C° 0 mm 3 mps 738 mmHg 52%
    03:00 +17°C° 0 mm 3 mps 738 mmHg 53%
    04:00 +16°C° 0 mm 3 mps 738 mmHg 53%
    05:00 +17°C° 0 mm 3 mps 738 mmHg 51%
    06:00 +18°C° 0 mm 3 mps 738 mmHg 49%
    07:00 +18°C° 0 mm 3 mps 738 mmHg 47%
    08:00 +20°C° 0.1 mm 3 mps 738 mmHg 43%
    09:00 +22°C° 0.1 mm 3 mps 738 mmHg 39%
    10:00 +25°C° 0.1 mm 2 mps 738 mmHg 34%
    11:00 +25°C° 0.1 mm 2 mps 738 mmHg 35%
    12:00 +25°C° 0.1 mm 2 mps 738 mmHg 36%
    13:00 +25°C° 0.1 mm 2 mps 738 mmHg 37%
    14:00 +24°C° 0.1 mm 2 mps 738 mmHg 41%
    15:00 +24°C° 0.1 mm 2 mps 738 mmHg 45%
    16:00 +22°C° 0.1 mm 3 mps 738 mmHg 49%
    17:00 +21°C° 0 mm 3 mps 738 mmHg 50%
    18:00 +20°C° 0 mm 3 mps 739 mmHg 51%
    19:00 +20°C° 0 mm 3 mps 739 mmHg 52%
    20:00 +19°C° 0 mm 3 mps 739 mmHg 52%
    21:00 +18°C° 0 mm 4 mps 740 mmHg 53%
    22:00 +17°C° 0 mm 4 mps 740 mmHg 53%
    23:00 +15°C° 0 mm 4 mps 740 mmHg 57%

    20 September, Friday

    Time Temperature Precipitation Wind Pressure Humidity
    00:00 +15°C° 0 mm 4 mps 740 mmHg 60%
    01:00 +14°C° 0 mm 4 mps 740 mmHg 64%
    02:00 +14°C° 0 mm 4 mps 740 mmHg 63%
    03:00 +13°C° 0 mm 5 mps 740 mmHg 62%
    04:00 +13°C° 0 mm 5 mps 740 mmHg 62%
    05:00 +13°C° 0 mm 5 mps 740 mmHg 58%
    06:00 +14°C° 0 mm 5 mps 740 mmHg 54%
    07:00 +14°C° 0 mm 5 mps 740 mmHg 50%
    08:00 +16°C° 0 mm 5 mps 741 mmHg 44%
    09:00 +19°C° 0 mm 5 mps 741 mmHg 39%
    10:00 +22°C° 0 mm 5 mps 741 mmHg 34%
    11:00 +23°C° 0 mm 4 mps 741 mmHg 32%
    12:00 +25°C° 0 mm 4 mps 740 mmHg 30%
    13:00 +26°C° 0 mm 4 mps 740 mmHg 27%
    14:00 +26°C° 0 mm 4 mps 740 mmHg 26%
    15:00 +26°C° 0 mm 4 mps 740 mmHg 25%
    16:00 +25°C° 0 mm 4 mps 740 mmHg 24%
    17:00 +22°C° 0 mm 4 mps 740 mmHg 27%
    18:00 +20°C° 0 mm 4 mps 740 mmHg 29%
    19:00 +17°C° 0 mm 4 mps 741 mmHg 31%
    20:00 +17°C° 0 mm 4 mps 741 mmHg 33%
    21:00 +15°C° 0 mm 4 mps 741 mmHg 35%
    22:00 +14°C° 0 mm 4 mps 742 mmHg 37%
    23:00 +13°C° 0 mm 4 mps 742 mmHg 38%

    21 September, Saturday

    Time Temperature Precipitation Wind Pressure Humidity
    00:00 +13°C° 0 mm 4 mps 742 mmHg 39%
    01:00 +12°C° 0 mm 4 mps 742 mmHg 40%
    02:00 +12°C° 0 mm 4 mps 742 mmHg 41%
    03:00 +12°C° 0 mm 4 mps 742 mmHg 42%
    04:00 +11°C° 0 mm 4 mps 742 mmHg 43%
    05:00 +12°C° 0 mm 4 mps 742 mmHg 41%
    06:00 +13°C° 0 mm 4 mps 742 mmHg 39%
    07:00 +14°C° 0 mm 4 mps 742 mmHg 38%
    08:00 +17°C° 0 mm 4 mps 742 mmHg 33%
    09:00 +20°C° 0 mm 4 mps 743 mmHg 29%
    10:00 +22°C° 0 mm 4 mps 743 mmHg 24%
    11:00 +24°C° 0 mm 3 mps 743 mmHg 23%
    12:00 +26°C° 0 mm 3 mps 743 mmHg 22%
    13:00 +27°C° 0 mm 3 mps 742 mmHg 20%
    14:00 +27°C° 0 mm 3 mps 742 mmHg 21%
    15:00 +26°C° 0 mm 3 mps 742 mmHg 22%
    16:00 +26°C° 0 mm 3 mps 742 mmHg 23%
    17:00 +24°C° 0 mm 3 mps 742 mmHg 27%
    18:00 +20°C° 0 mm 3 mps 742 mmHg 30%
    19:00 +18°C° 0 mm 3 mps 743 mmHg 34%
    20:00 +17°C° 0 mm 3 mps 743 mmHg 35%
    21:00 +16°C° 0 mm 3 mps 743 mmHg 35%
    22:00 +16°C° 0 mm 2 mps 743 mmHg 36%
    23:00 +15°C° 0 mm 2 mps 743 mmHg 37%

    22 September, Sunday

    Time Temperature Precipitation Wind Pressure Humidity
    00:00 +15°C° 0 mm 2 mps 743 mmHg 38%
    01:00 +14°C° 0 mm 3 mps 743 mmHg 39%
    02:00 +13°C° 0 mm 3 mps 743 mmHg 39%
    03:00 +13°C° 0 mm 3 mps 743 mmHg 39%
    04:00 +13°C° 0 mm 3 mps 743 mmHg 40%
    05:00 +14°C° 0 mm 3 mps 743 mmHg 38%
    06:00 +16°C° 0 mm 3 mps 743 mmHg 36%
    07:00 +17°C° 0 mm 2 mps 743 mmHg 35%
    08:00 +20°C° 0 mm 2 mps 744 mmHg 30%
    09:00 +23°C° 0 mm 2 mps 744 mmHg 26%
    10:00 +26°C° 0 mm 1 mps 744 mmHg 22%
    11:00 +27°C° 0 mm 2 mps 744 mmHg 21%
    12:00 +28°C° 0 mm 2 mps 743 mmHg 21%
    13:00 +29°C° 0 mm 2 mps 743 mmHg 20%
    14:00 +28°C° 0 mm 3 mps 743 mmHg 23%
    15:00 +27°C° 0 mm 3 mps 742 mmHg 26%
    16:00 +26°C° 0 mm 3 mps 742 mmHg 29%
    17:00 +24°C° 0 mm 2 mps 742 mmHg 36%
    18:00 +20°C° 0 mm 2 mps 742 mmHg 43%
    19:00 +19°C° 0 mm 1 mps 743 mmHg 50%
    20:00 +19°C° 0 mm 1 mps 743 mmHg 47%
    21:00 +18°C° 0 mm 1 mps 743 mmHg 45%
    22:00 +18°C° 0 mm 1 mps 743 mmHg 42%
    23:00 +18°C° 0 mm 1 mps 743 mmHg 41%
    Show more